Regional Weather Roundup
Issued by NWS

Home | Current Version | Previous Version | Text Only | Print | Product List | Glossary Off
Versions: 1 2 3 4 5 6 7 8 9 10 11 12 13 14 15 16 17 18 19 20 21 22 23 24 25 26 27 28 29 30 31 32 33 34 35 36 37 38 39 40 41 42 43 44 45 46 47 48 49 50

451
ASUS45 KTFX 222210
RWRMT
MONTANA REGIONAL WEATHER ROUNDUP
NATIONAL WEATHER SERVICE GREAT FALLS MT
400 PM MDT MON MAY 22 2017

NOTE: "FAIR" INDICATES FEW OR NO CLOUDS BELOW 12000 FEET WITH NO
SIGNIFICANT WEATHER AND/OR OBSTRUCTIONS TO VISIBILITY.

MTZ001>007-043-222300-
WEST OF THE DIVIDE

CITY           SKY/WX    TMP DP  RH WIND       PRES   REMARKS
KALISPELL      SUNNY     76  33  21 SE3       30.16F
MISSOULA       SUNNY     77  39  25 N12G22    30.18S
BUTTE          CLOUDY    65  33  30 N9        30.26R
MULLAN PASS    MOSUNNY   65  34  31 NW6       30.31F
ANACONDA         N/A     68  34  28 NE3       30.22F
DEER LODGE       N/A     66  36  32 NE6       30.25S
EUREKA           N/A     79  34  19 NE3       30.15F
HAMILTON         N/A     75  37  25 NE8       30.18F
LIBBY            N/A     81  34  18 SE3       30.14S
PLAINS           N/A     83  46  27 E1        30.14F
RONAN            N/A     76  36  23 N8        30.22F
$$

MTZ008-052>055-222300-
SOUTHWEST MONTANA

CITY           SKY/WX    TMP DP  RH WIND       PRES   REMARKS
BOZEMAN        CLOUDY    65  42  43 CALM      30.23S
DILLON         CLOUDY    71  34  25 N8        30.21S
W YELLOWSTONE  CLOUDY    57  32  38 NE9       30.28S
ENNIS          PTSUNNY   64  36  34 N13G22    30.28S
THREE FORKS      N/A     70  38  31 N6        30.19S
TWIN BRIDGES     N/A     70  34  26 N12       30.18R
$$

MTZ009-010-012-014-046-048-049-054-222300-
EAST SLOPES AND CENTRAL MONTANA

CITY           SKY/WX    TMP DP  RH WIND       PRES   REMARKS
CUT BANK       CLOUDY    68  37  32 N3        30.21S
GREAT FALLS    PTSUNNY   67  35  30 NW8       30.21F
HELENA         CLOUDY    73  37  27 N10       30.21S
AUGUSTA          N/A     66  37  34 N5        30.23S
BOWMANS CRNR     N/A     65  39  39 NE9       30.21F
CHOTEAU          N/A     72  37  28 NE8       30.23S
CONRAD           N/A     71  42  35 W1        30.21S
FAIRFIELD      PTSUNNY   68  35  30 NE5       30.21S
POWER          PTSUNNY   69  35  28 N8        30.20F
RAYNESFORD       N/A     64  36  34 N12       30.22F
ULM            PTSUNNY   68  42  38 CALM      30.21F
$$

MTZ011-013-016-021-045-047-050-051-222300-
NORTH CENTRAL MONTANA

CITY           SKY/WX    TMP DP  RH WIND       PRES   REMARKS
HAVRE          SUNNY     74  29  19 N10       30.16S
LEWISTOWN      SUNNY     66  29  24 NW12G25   30.20S
N BAR RANCH      N/A     64  32  29 N14G21    30.22S
CHINOOK          N/A     70  30  23 N6        30.16S
DENTON           N/A     67  37  33 N20G35    30.16R
GEYSER           N/A     66  40  38 N12G23    30.21S
JUDITH GAP       N/A     62  37  39 NW22G33   30.20F
STANFORD         N/A     64  38  38 N14       30.22S
WINIFRED         N/A     67  32  27 N13G25    30.18S
$$

MTZ017>020-022>027-061-062-222300-
NORTHEAST MONTANA

CITY           SKY/WX    TMP DP  RH WIND       PRES   REMARKS
GLASGOW        PTSUNNY   67  32  27 N15       30.12R
JORDAN           N/A     65  35  33 N14       30.14R
SIDNEY         MOSUNNY   65  35  33 N17G23    30.07F
WOLF POINT     CLOUDY    69  33  26 NE21G26   30.11R
MALTA          PTSUNNY   72  32  23 NW13      30.14F
PLENTYWOOD       N/A     64  30  27 N18G25    30.08R
POPLAR           N/A     64  34  32 N15G23    30.10F
SCOBEY           N/A     63  33  32 N14       30.09S
$$

MTZ028>42-056>058-222300-
SOUTHCENTRAL AND SOUTHEAST MONTANA

CITY           SKY/WX    TMP DP  RH WIND       PRES   REMARKS
BAKER          CLOUDY    56  39  53 N10       30.11R
BILLINGS       MOSUNNY   68  35  29 NW12      30.17F
LIVINGSTON     CLOUDY    62  40  44 CALM      30.25S
MILES CITY     PTSUNNY   67  35  30 N20G29    30.11F
BIG TIMBER     MOSUNNY   64  41  42 W16G23    30.26S
EKALAKA          N/A     55  42  61 N18       30.08R
FORSYTH          N/A     64  32  29 NW9G17    30.13S
LAUREL           N/A     65  38  36 N3        30.16F
ROUNDUP          N/A     69  32  25 NW13      30.07S
$$

REGIONAL REPORTS...DAKOTAS

CITY           SKY/WX    TMP DP  RH WIND       PRES   REMARKS
WILLISTON      PTSUNNY   66  34  30 N16       30.06S
MINOT          CLOUDY    61  37  41 N17       29.97F
DICKINSON      CLOUDY    60  32  34 N18G24    30.03S
BEACH          PTSUNNY   59  39  47 NW15G22   30.12R
TIOGA            N/A     64  32  29 N14G23    30.05S
WATFORD CITY   PTSUNNY   63  36  36 N14G23    30.04F
BISMARCK       LGT RAIN  59  42  53 N14G22    29.99S
GRAND FORKS    RAIN      50  47  89 N13       29.87S FOG
FARGO          CLOUDY    54  44  69 N21       29.87S
BUFFALO SD       N/A     61  39  44 N18G25    30.01R
RAPID CITY     LGT RAIN  53  44  71 NW26G32   30.07R
$$

REGIONAL REPORTS...WYOMING/IDAHO/WASHINGTON

CITY           SKY/WX    TMP DP  RH WIND       PRES   REMARKS
GILLETTE       MOSUNNY   51  43  74 N12       30.15F
SHERIDAN       PTSUNNY   59  40  49 N5        30.19R THUNDER
BUFFALO WY     MOSUNNY   57  36  45 NW25G32   30.19S
CODY           CLOUDY    52  38  58 NE25G33   30.27R
YELLOWSTONE LA   N/A     49  31  49 N9G24     30.36R
IDAHO FALLS    CLOUDY    74  32  21 NW10      30.18F
SALMON         SUNNY     73  37  27 SW6       30.13F
BOISE          SUNNY     80  42  25 NW9       30.15S
SPOKANE        MOSUNNY   79  37  22 VRB3      30.17F
$$

REGIONAL REPORTS...ALBERTA

CITY           SKY/WX    TMP DP  RH WIND       PRES   REMARKS
EDMONTON       MOSUNNY   77  46  33 SW7       30.07F
CALGARY        PTSUNNY   75  32  20 SW8       30.16F
LETHBRIDGE     MOSUNNY   73  36  25 N6        30.18F
MEDICINE HAT   MOSUNNY   72  30  21 VRB8      30.17F
WATERTON GATE    N/A     72  34  25 NE6         N/A
CARDSTON         N/A     72  36  26 NE8         N/A
MILK RIVER       N/A     73  39  29 NE7         N/A
$$

REGIONAL REPORTS...SASKATCHEWAN

CITY           SKY/WX    TMP DP  RH WIND       PRES   REMARKS
SWIFT CURRENT  MOSUNNY   66  28  24 N13G20    30.16S
REGINA         PTSUNNY   66  32  28 N13G28    30.10F
SASKATOON      PTSUNNY   72  30  21 N10G17    30.15F
CYPRESS HILLS    N/A     61  27  27 NE7         N/A
VAL MARIE        N/A     66  30  26 N15G22      N/A
ROCKGLEN         N/A     61  32  33 N14G25      N/A
ASSINIBOIA       N/A     75  36  23 S10         N/A
$$




USA.gov is the U.S. government's official web portal to all federal, state and local government web resources and services.